Weather reports worldwide

Advertisment
Exeter Airport No. 2, United Kingdom (3844): temperature & dewpoint: 30.06.2020 06:00:00 - 06.07.2020 06:00:00 (BST)Exeter Airport No. 2, United Kingdom (3844): reduced air pressure: 30.06.2020 06:00:00 - 06.07.2020 06:00:00 (BST)Exeter Airport No. 2, United Kingdom (3844): visibility: 30.06.2020 06:00:00 - 06.07.2020 06:00:00 (BST)Exeter Airport No. 2, United Kingdom (3844): sunshine duration: 30.06.2020 06:00:00 - 06.07.2020 06:00:00 (BST)Exeter Airport No. 2, United Kingdom (3844): precipitation: 30.06.2020 06:00:00 - 06.07.2020 06:00:00 (BST)
Date & Time tt [°C] td [°C] ppp [hPa] vv [km] sd [min] rr [mm]
06.07.2020 06:00:00 12,7 9,3 1019,4 19 0 0,0
06.07.2020 05:00:00 12,8 9,3 1019,0 18 0 0,0
06.07.2020 04:00:00 13,2 9,9 1018,8 14 0 0,0
06.07.2020 03:00:00 12,8 10,0 1018,6 12 0 0,0
06.07.2020 02:00:00 12,6 9,5 1018,7 13 0 0,0
06.07.2020 01:00:00 12,5 9,3 1018,4 13 - 0,0
06.07.2020 00:00:00 12,7 9,3 1018,0 13 0 0,0
05.07.2020 23:00:00 13,1 8,7 1017,8 15 0 0,0
05.07.2020 22:00:00 13,5 8,2 1017,6 15 0 0,0
05.07.2020 21:00:00 14,3 7,7 1017,1 17 18 0,0
05.07.2020 20:00:00 15,5 7,2 1016,4 21 54 0,0
05.07.2020 19:00:00 16,4 7,4 1016,2 21 42 0,0
05.07.2020 18:00:00 16,9 7,2 1015,9 25 48 0,0
05.07.2020 17:00:00 17,4 7,0 1015,7 30 36 0,0
05.07.2020 16:00:00 16,9 7,5 1015,6 29 36 0,0
05.07.2020 15:00:00 17,5 9,4 1015,3 23 24 0,0
05.07.2020 14:00:00 16,3 8,5 1015,1 25 12 0,0
05.07.2020 13:00:00 16,7 6,9 1015,1 30 18 0,0
05.07.2020 12:00:00 16,2 7,7 1014,7 27 36 0,0
05.07.2020 11:00:00 16,0 8,4 1014,2 25 30 0,0
05.07.2020 10:00:00 15,8 8,3 1013,9 28 36 0,0
05.07.2020 09:00:00 15,1 9,6 1013,3 29 18 0,0
05.07.2020 08:00:00 15,0 11,1 1012,2 24 12 0,0
05.07.2020 07:00:00 15,0 12,7 1011,6 10 6 0,0
05.07.2020 06:00:00 16,9 13,7 1011,0 50 0 0,0
05.07.2020 05:00:00 17,4 14,4 1010,7 55 0 0,0
05.07.2020 04:00:00 17,0 14,6 1010,7 50 0 0,0
05.07.2020 03:00:00 16,7 14,2 1010,8 60 0 0,0
05.07.2020 02:00:00 16,8 14,2 1011,3 55 0 0,0
05.07.2020 01:00:00 17,0 14,7 1011,8 45 - 0,0
05.07.2020 00:00:00 16,7 14,6 1011,8 40 0 0,0
04.07.2020 23:00:00 16,8 14,5 1012,0 35 0 0,0
04.07.2020 22:00:00 17,1 14,3 1012,3 35 0 0,0
04.07.2020 21:00:00 17,4 14,2 1012,0 35 0 0,0
04.07.2020 20:00:00 18,3 14,9 1011,9 35 0 0,0
04.07.2020 19:00:00 19,0 15,1 1011,9 45 0 0,0
04.07.2020 18:00:00 19,6 15,5 1011,9 40 0 0,0
04.07.2020 17:00:00 19,7 15,2 1011,8 50 6 0,0
04.07.2020 16:00:00 20,7 15,6 1011,3 55 0 0,0
04.07.2020 15:00:00 20,1 16,0 1011,6 45 0 0,0
04.07.2020 14:00:00 19,7 15,3 1011,6 55 0 0,0
04.07.2020 13:00:00 19,3 15,1 1011,6 55 0 0,0
04.07.2020 12:00:00 18,9 15,4 1011,5 55 0 0,0
04.07.2020 11:00:00 18,7 15,4 1011,6 60 0 0,0
04.07.2020 10:00:00 18,0 15,0 1011,5 55 0 0,0
04.07.2020 09:00:00 18,1 14,8 1011,5 65 0 0,0
04.07.2020 08:00:00 17,5 14,6 1011,7 60 0 0,0
04.07.2020 07:00:00 16,8 14,9 1011,6 60 0 0,0
04.07.2020 06:00:00 16,4 14,6 1011,1 60 0 0,0
04.07.2020 05:00:00 16,4 14,6 1011,6 60 0 0,0
04.07.2020 04:00:00 16,5 14,6 1011,5 50 0 0,0
04.07.2020 03:00:00 16,4 14,5 1012,0 55 0 0,0
04.07.2020 02:00:00 16,2 14,4 1012,3 60 0 0,0
04.07.2020 01:00:00 16,1 14,2 1012,7 50 - 0,0
04.07.2020 00:00:00 15,8 14,3 1013,5 40 0 0,2
03.07.2020 23:00:00 15,8 14,0 1013,7 45 0 0,0
03.07.2020 22:00:00 15,5 13,6 1014,1 55 0 0,0
03.07.2020 21:00:00 15,4 13,4 1014,2 55 0 0,0
03.07.2020 20:00:00 15,2 13,2 1014,8 45 0 0,0
03.07.2020 19:00:00 14,9 13,1 1015,5 22 0 0,6
03.07.2020 18:00:00 14,9 13,0 1015,8 8 0 1,4
03.07.2020 17:00:00 15,0 12,5 1016,1 5 0 0,6
03.07.2020 16:00:00 16,0 11,4 1016,6 30 0 0,0
03.07.2020 15:00:00 17,2 11,0 1016,8 30 0 0,0
03.07.2020 14:00:00 17,2 11,0 1016,9 30 6 0,0
03.07.2020 13:00:00 18,2 11,1 1017,2 28 30 0,0
03.07.2020 12:00:00 18,2 10,5 1017,3 30 36 0,0
03.07.2020 11:00:00 18,2 10,7 1017,3 30 54 0,0
03.07.2020 10:00:00 16,7 10,1 1017,5 30 54 0,0
03.07.2020 09:00:00 15,3 10,6 1017,6 30 12 0,0
03.07.2020 08:00:00 14,4 11,3 1017,7 30 24 0,0
03.07.2020 07:00:00 12,9 10,7 1017,6 30 0 0,0
03.07.2020 06:00:00 12,0 10,2 1017,8 30 0 0,0
03.07.2020 05:00:00 11,0 9,9 1018,0 30 0 0,0
03.07.2020 04:00:00 8,0 7,5 1018,1 22 0 0,0
03.07.2020 03:00:00 8,6 8,0 1018,0 13 0 0,0
03.07.2020 02:00:00 9,1 8,6 1017,8 21 0 0,0
03.07.2020 01:00:00 10,1 9,3 1017,8 14 - 0,0
03.07.2020 00:00:00 10,0 8,4 1018,2 16 0 0,0
02.07.2020 23:00:00 12,0 9,8 1018,0 24 0 0,0
02.07.2020 22:00:00 13,3 10,4 1017,7 30 0 0,0
02.07.2020 21:00:00 15,4 11,2 1016,9 35 54 0,0
02.07.2020 20:00:00 16,9 12,0 1016,4 40 18 0,0
02.07.2020 19:00:00 16,2 12,2 1015,8 30 0 0,0
02.07.2020 18:00:00 16,9 12,7 1015,2 35 0 0,0
02.07.2020 17:00:00 17,6 12,7 1014,7 40 0 0,0
02.07.2020 16:00:00 17,3 12,1 1014,6 45 0 0,0
02.07.2020 15:00:00 17,7 11,7 1014,1 35 0 0,0
02.07.2020 14:00:00 17,8 11,6 1013,7 40 12 0,0
02.07.2020 13:00:00 18,8 11,4 1013,2 40 42 0,0
02.07.2020 12:00:00 16,6 11,1 1013,0 45 0 0,0
02.07.2020 11:00:00 16,3 10,8 1012,5 45 18 0,0
02.07.2020 10:00:00 16,0 11,8 1012,1 35 12 0,0
02.07.2020 09:00:00 14,6 11,3 1011,5 30 0 0,0
02.07.2020 08:00:00 14,6 10,7 1011,0 35 18 0,0
02.07.2020 07:00:00 13,9 10,8 1010,6 30 18 0,0
02.07.2020 06:00:00 12,4 10,2 1010,2 30 0 0,0
02.07.2020 05:00:00 12,4 10,1 1009,9 30 0 0,0
02.07.2020 04:00:00 13,2 10,5 1009,8 30 0 0,0
02.07.2020 03:00:00 13,3 10,6 1009,8 35 0 0,0
02.07.2020 02:00:00 12,8 11,0 1009,7 35 0 0,0
02.07.2020 01:00:00 12,8 11,2 1009,6 30 - 0,0
02.07.2020 00:00:00 12,9 10,8 1009,6 35 0 0,0
01.07.2020 23:00:00 11,8 9,9 1009,6 35 0 0,0
01.07.2020 22:00:00 13,0 8,6 1009,3 40 0 0,0
01.07.2020 21:00:00 14,7 9,3 1008,8 40 42 0,0
01.07.2020 20:00:00 16,2 9,8 1008,4 40 60 0,0
01.07.2020 19:00:00 17,8 10,0 1008,0 40 48 0,0
01.07.2020 18:00:00 18,2 10,3 1007,7 45 24 0,0
01.07.2020 17:00:00 18,4 11,6 1007,3 45 6 0,0
01.07.2020 16:00:00 16,2 15,0 1007,3 20 0 0,4
01.07.2020 15:00:00 16,6 15,1 1006,8 35 0 0,6
01.07.2020 14:00:00 17,8 12,5 1006,6 29 0 0,0
01.07.2020 13:00:00 18,1 12,8 1006,2 45 0 0,0
01.07.2020 12:00:00 18,9 12,8 1005,9 45 6 0,0
01.07.2020 11:00:00 18,1 11,7 1005,6 45 0 0,0
01.07.2020 10:00:00 17,4 12,3 1005,6 50 6 0,0
01.07.2020 09:00:00 16,3 12,8 1005,6 40 0 0,0
01.07.2020 08:00:00 15,4 12,7 1005,3 35 0 0,0
01.07.2020 07:00:00 14,8 12,2 1005,0 35 0 0,0
01.07.2020 06:00:00 14,3 11,8 1004,7 35 0 0,0
01.07.2020 05:00:00 13,9 11,9 1004,7 35 0 0,0
01.07.2020 04:00:00 13,9 11,4 1004,8 35 0 0,0
01.07.2020 03:00:00 14,4 11,7 1005,0 35 0 0,0
01.07.2020 02:00:00 14,4 11,4 1005,1 40 0 0,0
01.07.2020 01:00:00 14,8 11,5 1005,6 40 - 0,0
01.07.2020 00:00:00 15,2 11,6 1005,6 35 0 0,0
30.06.2020 23:00:00 15,7 12,3 1005,7 35 0 0,0
30.06.2020 22:00:00 - - - - - -
30.06.2020 21:00:00 16,8 13,6 1005,0 35 6 0,0
30.06.2020 20:00:00 18,1 14,4 1004,9 35 0 0,0
30.06.2020 19:00:00 18,8 14,7 1005,0 35 12 0,0
30.06.2020 18:00:00 19,6 15,1 1005,1 40 12 0,0
30.06.2020 17:00:00 20,6 16,3 1005,4 50 6 0,0
30.06.2020 16:00:00 20,7 16,3 1005,5 45 12 0,0
30.06.2020 15:00:00 19,4 15,8 1005,8 50 0 0,0
30.06.2020 14:00:00 17,9 15,9 1006,1 45 0 0,0
30.06.2020 13:00:00 16,8 15,2 1006,3 35 0 0,0
30.06.2020 12:00:00 15,6 14,2 1006,7 40 0 0,0
30.06.2020 11:00:00 15,5 14,1 1007,2 13 0 0,0
30.06.2020 10:00:00 14,4 13,2 1007,7 15 0 0,4
30.06.2020 09:00:00 14,1 12,8 1007,8 8 0 1,4
30.06.2020 08:00:00 14,1 12,5 1007,9 40 0 0,0
30.06.2020 07:00:00 13,5 12,1 1007,9 25 0 0,2
30.06.2020 06:00:00 13,1 11,7 1008,3 25 0 0,0

tt = temperature
td = dewpoint
ppp = reduced air pressure
vv = visibility
sd = sunshine duration
rr = precipitation

Next stations